STARLINK-32417, 61673

Orbit data source: Space-Track

STARLINK-32417, 61673 is a payload satellite owned by SpaceX/Seattle (US) in LEO that was launched on Sat, 26 Oct 2024 UTC via an FALCON 9 launch vehicle from the Air Force Eastern Test Range (AFETR). Payload-class satellites include a variety of spacecraft equipped with specific instruments for various scientific and technological missions. These include communications satellites like Starlink; space stations such as the ISS; scientific satellites like the Hubble; Earth observation satellites from companies like Planet Labs, Umbra, and HawkEye 360; GPS; miniature CubeSats for education and research; and military/defense satellites.

Loading next visibility...
Identifier
61673, 2024-193N
Orbit
LEO
Country
Flag of USUS
Related business
Manufacturer
SpaceX/Seattle
Mission
Operational Commercial Communications
Bus & Motor
STARLINK V2M, Unknown motor
Mass
730 kg wet, ~700 kg dry
Launch date (UTC)
2024-10-26 (10 months ago)
Launch vehicle
FALCON 9
Launch site
Air Force Eastern Test Range (AFETR)
Object type
Payload
Rocket body
Debris
Shape & HBR
Box + 2 Pan, 14.5 m
Radar Cross Section
36.964 m², Large (>1 m²)

Expand to show TLE details & history
Last TLE update: 11 hours ago

TLE from 11 hours ago
0 STARLINK-32417
1 61673U 24193N   25243.45835112 -.00001188  00000-0 -28009-4 0  9990
2 61673  53.1590 254.4498 0001027  76.4370 283.6745 15.30183054 47401
Epoch: 2025-08-31T11:00Z
TLE epoch observation values (Epoch: 2025-08-31T11:00:01.536Z)
Latitude
-0.00004°
Longitude
109.56536°
Altitude
475.999 km
Speed
7.629 km/s
True Right ascension
16h 57m 47s
True Declination
0° 00' 00"
Sunlit
Object was in daylight at epoch
Visualization orbit readout
Latitude
Unknown
Longitude
Unknown
Altitude
Unknown
Speed
Unknown
Apparent Right ascension
Unknown
Apparent Declination
Unknown
Sunlit
N/A
Visualization observer readout
Local Sidereal Time
14:10:55
Azimuth
Unknown
Elevation
Unknown
Doppler factor
Unknown
Orbital elements
Apogee altitude
476.226 km
Perigee altitude
474.818 km
Semi-major axis
6,853.659 km
Eccentricity
0.0001
Inclination
53.159°
RAAN
254.4498°
Arg. of periapsis
76.437°
True anomaly
283.66306°
Mean anomaly
283.6745°
Eccentric anomaly
283.66878°
Mean motion
3.82525 °/min
Orbital period
94.11 mins
BSTAR
-0.000028009
Loading maneuver chart data...
Computing Atmospheric mass density...
Loading historical data...
Loading historical data...
Loading historical data...
Loading historical data...
Loading historical data...
Loading historical data...
Loading historical data...

Documentation

Showing up to 5 results
|